GEFSSE_500_meanwind_222.txt.gz
Wind_Speed
3 4 3 3 3 3 3 3 3 3 3 2 2 3 3 3 3 2 2 2 2 3 4 4 4 4 4 4 4 5 5 5 5 5 5 5 5 5 5 4 4 4 4
4 4 4 4 4 4 4 3 3 4 3 3 3 4 4 3 4 4 3 3 3 3 4 4 4 5 5 5 5 5 5 5 6 6 6 6 6 6 6 5 5 5 5
4 4 4 4 4 4 4 3 4 4 4 4 4 4 4 4 4 4 4 4 3 3 4 4 5 5 6 6 6 6 6 6 6 6 6 7 7 7 7 7 6 6 6
5 5 4 4 4 4 4 4 5 5 5 5 5 5 5 5 5 4 4 4 4 4 4 5 5 6 7 7 7 7 7 7 6 6 7 7 8 8 8 8 7 7 7
6 5 5 4 5 4 4 5 5 6 6 5 5 5 5 5 4 4 4 5 4 4 4 5 6 7 7 8 8 8 8 7 7 7 7 8 8 8 8 8 8 8 8
7 7 7 6 6 5 6 6 6 6 5 5 6 6 5 4 4 4 5 5 5 5 5 5 6 7 8 8 8 9 9 8 8 7 8 8 8 9 9 9 9 9 9
9 8 8 8 7 7 7 7 6 6 6 6 6 6 6 5 4 5 5 5 5 5 5 5 6 6 7 8 9 9 9 8 8 8 8 9 9 9 9 9 9 9 10
9 9 9 9 9 8 8 7 7 6 6 6 7 7 6 6 5 5 5 5 5 5 5 6 6 6 7 8 8 8 9 8 8 8 9 9 9 10 10 9 9 9 9
10 10 10 10 10 9 8 8 8 7 7 7 7 7 7 7 6 5 5 5 6 6 5 6 6 6 7 7 8 9 9 9 8 8 8 9 9 9 10 10 10 10 10
10 10 11 10 9 9 9 8 8 8 8 7 7 7 8 7 6 6 6 6 5 6 6 6 7 7 7 7 7 8 8 8 9 8 8 8 9 9 9 9 10 10 10
10 10 11 10 9 9 9 9 8 8 8 8 8 8 8 7 7 7 7 7 7 7 7 7 8 8 8 8 8 8 9 9 9 8 8 8 8 8 8 9 10 10 10
10 10 11 10 10 9 9 9 9 9 8 8 8 8 8 8 8 7 7 8 8 8 8 8 8 8 8 8 9 9 9 9 9 8 8 7 7 8 8 9 9 9 10
10 10 10 9 9 9 9 9 9 9 8 8 8 8 8 8 8 8 7 8 8 8 8 8 8 9 8 9 9 10 10 10 9 8 8 7 7 7 8 8 8 9 9
10 10 10 9 9 9 9 9 9 9 9 9 9 9 8 8 7 7 7 8 8 7 7 8 8 8 8 8 9 9 9 10 9 8 7 7 7 7 8 8 8 8 9
9 10 10 10 9 9 9 9 9 9 10 10 9 9 8 8 8 7 8 8 7 7 8 7 7 8 7 7 8 8 9 9 9 8 7 8 7 8 8 8 8 8 8
9 10 10 9 8 8 9 9 9 9 9 10 10 9 9 8 8 8 8 7 7 7 6 7 7 7 7 7 7 8 8 8 7 8 8 8 8 8 8 8 8 9 9
9 9 9 9 9 9 9 9 8 9 9 9 10 10 9 9 8 8 7 7 6 6 6 6 6 6 6 7 7 7 8 8 8 8 8 8 8 8 9 9 9 9 9
9 8 9 9 9 9 9 9 9 9 9 9 9 9 10 9 8 8 7 7 7 7 7 7 6 6 6 6 6 6 6 7 8 7 8 8 8 9 9 9 10 10 10
9 9 9 9 8 8 9 9 9 9 9 9 9 9 9 9 8 8 7 7 7 7 7 7 6 7 7 7 6 6 6 6 7 7 8 8 8 9 9 9 10 10 10
9 9 8 8 8 8 9 8 8 8 8 8 8 8 9 8 8 7 7 7 6 6 6 6 6 6 7 7 6 6 6 6 6 7 8 8 9 9 9 9 9 9 9
8 9 8 9 8 8 8 7 7 7 7 7 7 7 7 6 6 6 6 6 6 6 6 6 6 6 6 6 5 6 6 7 7 7 8 8 7 7 8 8 8 8 8
8 8 8 8 7 7 6 6 6 6 6 6 5 5 5 5 5 5 5 5 5 5 5 5 5 5 5 5 5 5 5 6 7 7 8 7 7 7 7 7 7 7 8
8 8 8 8 7 6 5 5 5 5 4 5 4 4 4 4 5 4 4 4 4 5 4 4 5 5 5 4 5 5 5 6 6 7 7 6 6 7 7 7 8 8 8
8 8 9 7 6 5 4 4 4 4 4 4 4 3 3 4 4 3 4 3 4 4 4 5 5 4 4 5 5 5 6 6 6 6 6 6 6 7 8 8 9 9 9
8 8 7 7 6 5 4 4 4 4 4 4 4 3 3 3 3 4 4 3 3 3 4 4 4 4 4 5 5 5 6 7 6 6 6 6 6 7 7 8 8 9 9
7 7 7 7 7 5 4 4 4 4 4 4 4 4 4 3 3 4 3 3 3 4 4 4 4 4 5 5 5 6 7 7 7 7 7 7 8 8 8 8 9 9 9

GEFSSE_500_meanwind_228.txt.gz
Wind_Speed
3 2 2 2 2 3 3 2 3 3 3 4 4 4 4 4 5 5 5 6 6 5 6 6 6 6 6 6 6 6 6 6 7 7 7 6 6 6 5 5 5 6 6
3 3 3 2 2 2 3 3 3 3 4 4 4 4 4 5 5 5 6 6 6 6 6 6 6 6 6 6 6 6 6 6 7 7 7 7 6 6 6 6 5 5 6
4 4 3 3 3 3 3 3 3 3 4 4 5 5 5 5 5 6 6 7 7 7 7 7 7 7 7 7 7 7 7 7 7 8 8 8 8 7 7 7 6 6 6
5 4 3 3 3 3 3 3 4 4 5 5 6 6 6 5 5 6 7 7 8 7 7 8 8 8 8 8 8 8 8 8 8 8 8 8 8 8 8 8 7 7 7
6 5 4 4 4 4 4 5 5 5 5 6 6 6 6 6 6 6 7 8 8 8 8 8 9 9 9 9 8 9 9 9 9 9 9 9 9 9 9 9 9 8 8
6 5 5 5 5 5 6 6 6 6 6 6 7 7 6 6 6 6 7 7 8 8 8 8 8 9 9 9 9 10 9 9 9 10 9 9 9 10 10 10 10 10 9
6 7 7 7 7 7 6 7 6 6 7 7 7 7 7 7 6 6 6 7 8 8 8 8 8 9 9 9 10 10 10 10 10 10 10 10 10 10 10 11 11 11 10
7 8 7 8 8 8 8 8 8 7 7 7 7 7 7 7 7 6 6 6 7 7 7 8 8 8 10 10 10 10 11 11 11 10 9 10 11 11 11 11 11 11 11
8 8 9 9 9 9 8 9 9 8 8 7 7 8 7 7 7 7 7 7 6 7 7 8 8 8 8 9 10 10 10 10 10 10 10 10 10 11 10 11 11 11 11
8 8 8 9 9 9 9 9 9 9 8 8 8 8 8 8 8 8 9 8 7 7 8 8 8 9 8 9 10 9 9 10 11 11 11 11 10 10 10 10 11 11 11
8 8 8 9 9 8 9 8 8 8 8 8 8 8 8 9 9 10 9 9 9 8 8 8 9 10 10 10 10 10 10 10 10 10 10 10 10 11 10 10 10 10 11
7 7 8 8 8 7 8 8 8 8 8 8 8 8 9 9 9 10 9 9 9 9 9 9 9 9 10 11 11 11 10 10 10 10 10 10 10 10 10 10 9 9 10
7 7 7 7 7 7 8 8 8 8 8 8 9 9 9 9 9 9 9 9 9 9 9 10 10 9 10 10 11 11 11 11 11 11 10 11 11 10 10 10 9 9 10
8 8 8 8 7 8 7 8 8 8 8 9 9 9 8 8 9 9 8 8 9 9 9 10 10 10 10 10 10 11 11 11 11 10 10 10 11 10 10 10 9 9 9
8 8 7 7 8 7 7 7 8 8 8 9 9 8 9 9 9 9 9 8 9 9 9 10 10 10 10 10 10 10 10 10 10 10 10 10 10 10 9 9 9 9 9
8 8 7 7 7 7 7 7 7 8 8 8 8 8 9 9 9 8 8 8 8 9 9 9 10 9 9 9 10 9 9 9 10 10 10 9 9 9 8 8 8 9 9
8 7 7 7 7 7 7 7 7 7 8 8 7 7 8 8 7 8 8 8 8 8 9 9 9 10 9 10 9 9 9 9 9 9 9 9 9 9 9 9 9 9 9
7 7 7 6 6 6 6 7 7 7 7 8 8 7 7 7 7 7 8 8 8 8 8 8 9 10 9 9 9 9 8 9 9 9 9 9 10 10 10 10 10 10 10
7 7 6 6 6 6 6 6 6 7 7 8 7 7 7 7 7 7 7 7 7 8 8 8 8 8 8 8 9 8 8 9 9 9 9 10 10 10 10 11 11 11 11
6 6 6 6 5 5 6 6 6 6 7 7 6 6 6 6 6 7 7 7 7 7 7 7 7 7 7 8 8 8 9 9 9 9 8 9 10 10 10 10 10 10 10
6 7 6 5 5 5 5 5 5 5 6 6 6 6 6 6 5 5 6 6 6 6 6 6 6 6 7 7 8 8 9 9 9 8 8 9 10 10 10 10 9 9 9
6 6 6 6 6 5 5 5 4 5 4 4 4 4 4 4 4 3 4 4 4 5 5 5 6 6 7 7 7 8 8 8 8 8 8 8 9 9 10 10 10 10 10
6 6 6 6 6 5 5 5 4 4 4 3 3 2 2 2 3 3 3 3 3 4 5 5 5 6 6 6 7 7 7 7 7 7 7 7 8 8 8 9 9 10 10
6 6 6 6 5 5 4 4 4 4 3 3 2 1 1 2 2 3 2 2 3 4 4 4 4 4 4 5 5 5 6 5 6 6 6 6 7 7 7 8 8 9 9
6 6 6 6 5 5 4 4 3 3 3 3 2 2 3 3 2 2 3 2 2 3 3 4 4 4 4 4 5 5 5 6 6 5 6 6 7 7 7 8 8 9 9
6 5 5 5 5 5 4 3 3 2 2 2 3 3 3 3 2 3 3 3 3 3 3 4 4 4 4 4 5 5 5 5 5 6 7 7 8 8 8 8 9 9 9

GEFSSE_500_meanwind_234.txt.gz
Wind_Speed
4 3 3 3 3 3 3 3 3 3 2 2 2 3 3 3 3 3 3 3 3 3 4 4 4 4 4 4 4 5 5 5 6 6 6 6 5 4 5 5 6 6 6
4 4 4 3 3 3 3 3 3 3 3 3 3 4 4 4 4 4 4 4 4 4 4 4 5 5 5 5 5 5 6 6 6 6 7 6 6 5 5 6 6 6 6
4 5 4 4 4 4 4 4 3 3 3 3 4 4 4 5 4 4 4 5 5 5 6 6 6 6 6 6 6 6 6 7 7 7 7 7 7 7 6 6 6 7 7
5 5 5 5 5 5 4 4 4 4 4 4 4 5 5 5 5 5 5 5 6 6 7 7 7 6 6 7 7 8 7 8 8 8 8 8 8 8 7 7 7 7 7
6 6 5 5 6 5 6 6 6 6 6 6 5 5 5 5 5 5 6 6 6 6 7 6 7 7 6 7 8 8 8 9 9 9 9 9 9 9 9 8 8 8 8
6 6 6 7 6 6 6 6 6 7 7 6 6 6 6 6 6 6 6 6 7 7 7 7 7 7 7 7 8 8 8 9 9 10 10 9 9 10 9 9 9 9 10
7 7 6 7 7 7 7 6 6 6 6 6 6 6 6 7 6 6 6 6 7 7 8 8 8 8 8 8 8 9 9 9 10 10 10 10 9 9 10 10 10 11 11
8 8 7 7 7 7 7 7 6 7 7 6 7 6 7 7 7 7 7 7 7 7 8 9 9 9 9 9 10 9 9 10 10 10 10 9 9 9 10 10 11 11 11
7 8 8 8 7 8 7 7 7 7 7 6 7 7 7 7 7 7 7 7 7 8 9 9 9 9 10 11 11 11 11 10 10 10 10 10 10 9 9 10 10 11 11
8 8 8 8 8 8 8 8 8 8 7 7 7 7 7 8 8 8 9 8 8 9 9 9 9 10 10 10 10 11 11 11 11 10 10 10 10 10 10 10 10 11 12
7 8 8 8 8 8 8 8 8 8 8 7 7 8 8 8 8 9 8 8 8 9 9 9 9 10 10 9 10 10 11 11 11 11 10 10 10 11 11 10 11 11 11
8 8 8 8 8 8 8 8 7 7 8 8 8 8 9 9 9 9 9 8 9 9 9 9 9 9 9 9 10 10 11 11 11 10 10 10 10 10 11 10 10 11 11
8 8 8 8 8 8 8 7 7 8 8 8 8 9 9 9 10 9 10 9 9 9 10 10 9 10 10 10 10 10 10 10 11 11 11 11 10 11 11 10 10 10 11
8 8 9 9 8 8 7 7 7 8 8 8 9 8 8 8 8 9 9 9 9 10 10 10 11 11 11 11 10 11 11 10 10 10 11 11 11 11 11 11 11 10 11
8 8 8 8 8 7 7 7 7 7 7 8 8 8 8 8 8 8 8 8 9 10 10 10 10 10 10 10 11 11 11 11 11 10 10 10 10 10 11 11 11 11 11
8 8 8 7 7 7 7 7 7 7 7 7 8 9 8 8 8 8 8 8 9 10 10 10 10 10 11 11 11 10 11 11 12 11 10 10 10 10 10 10 11 11 11
8 8 8 7 7 6 6 7 7 8 8 7 8 8 8 8 8 8 8 8 8 9 9 9 9 10 10 10 10 10 11 11 11 11 10 10 10 10 10 10 10 10 11
8 7 7 7 6 6 6 7 7 7 7 7 8 8 8 8 8 8 7 8 8 8 8 9 9 9 9 10 10 9 10 10 10 10 10 10 10 10 11 11 11 10 10
6 6 6 6 6 6 6 6 7 7 7 7 7 7 7 7 6 7 7 7 7 7 7 7 8 8 8 9 8 8 9 9 10 10 10 11 11 11 11 11 11 11 11
5 6 6 6 6 6 6 6 6 7 7 6 6 6 6 5 5 5 5 5 6 6 6 7 7 8 8 8 7 8 8 8 9 10 10 11 11 10 11 11 11 11 11
5 5 5 6 6 6 5 5 6 6 5 5 5 5 5 4 4 4 4 4 5 6 6 6 6 7 8 8 8 8 9 9 9 9 10 10 11 11 11 11 11 11 11
5 5 5 6 5 5 5 5 5 5 5 4 3 3 3 3 3 3 4 4 5 5 6 6 6 7 8 8 8 8 8 9 9 9 10 10 10 11 11 10 10 10 10
5 5 6 6 5 6 5 5 5 5 4 4 4 3 3 3 3 3 4 4 4 5 5 5 6 6 6 6 7 7 8 8 8 8 10 10 10 10 10 10 10 10 10
5 5 6 6 5 5 5 4 4 4 4 4 4 3 3 3 4 4 4 5 5 5 4 4 5 5 5 6 6 6 6 6 7 7 8 8 9 9 9 9 9 10 10
5 5 5 5 5 5 4 4 4 4 4 3 3 3 3 3 4 4 4 4 4 4 4 4 4 5 5 5 5 5 5 5 5 6 7 8 8 8 9 9 10 10 10
5 5 5 5 5 5 5 4 4 4 3 3 3 4 4 3 3 4 5 5 4 4 4 5 6 5 5 5 5 5 5 6 6 6 7 8 8 8 9 10 10 10 10

GEFSSE_500_meanwind_240.txt.gz
Wind_Speed
0 1 1 1 2 1 1 2 2 3 3 3 3 3 3 3 3 3 3 3 2 3 4 4 5 5 6 6 6 7 7 6 7 6 5 5 6 6 6 6 6 6 6
1 1 2 2 3 2 2 3 3 3 3 3 3 4 4 4 4 3 4 3 3 4 4 5 5 6 6 7 6 6 7 7 7 7 6 6 6 7 7 7 6 7 7
2 2 3 4 4 4 4 4 4 4 4 4 4 4 5 4 4 4 4 4 4 5 5 5 6 6 7 7 7 7 7 7 7 7 7 7 7 7 7 8 7 7 7
3 3 4 5 5 5 5 5 5 5 5 4 4 4 5 5 5 5 4 5 5 6 6 6 6 7 7 8 8 8 8 8 8 8 8 8 7 8 8 8 8 8 8
4 4 5 6 6 6 6 5 5 6 6 5 5 5 5 6 6 6 5 5 6 7 7 6 6 7 8 8 8 8 8 9 9 9 8 8 9 9 9 9 9 9 10
4 5 6 6 6 6 6 6 6 6 6 6 6 6 6 6 6 6 6 6 7 7 7 8 7 7 8 9 9 8 8 8 9 9 9 9 9 10 10 10 10 11 11
5 6 6 6 7 7 7 7 7 7 6 6 7 7 7 7 7 7 7 7 7 7 7 8 9 8 9 9 9 9 9 9 10 10 10 10 10 10 10 10 11 11 11
6 6 6 7 7 7 8 8 8 7 7 7 6 6 6 7 7 7 8 8 7 8 8 9 10 10 10 10 10 9 9 9 10 10 11 11 11 11 11 11 11 11 11
6 6 7 7 7 7 7 7 7 7 7 7 7 7 7 7 7 8 8 8 9 9 9 9 9 10 10 10 10 10 9 10 10 11 11 11 11 11 11 11 11 12 12
6 6 6 7 7 7 7 7 7 7 7 7 7 7 7 7 7 8 8 9 9 9 9 9 10 10 11 11 10 10 10 10 10 11 11 11 11 11 12 12 12 12 12
6 6 7 7 7 7 7 7 7 7 7 7 7 7 8 8 8 8 9 9 9 9 9 10 10 11 11 11 11 11 11 10 10 10 10 11 12 12 12 12 12 12 12
7 7 7 7 8 8 7 7 7 7 7 7 8 8 8 8 8 8 9 10 10 9 9 8 10 10 10 11 11 11 11 11 10 10 10 10 11 11 12 12 11 12 12
8 8 8 8 9 8 8 8 7 7 7 8 8 8 8 8 8 8 9 9 9 9 9 8 9 10 10 10 10 11 11 11 10 11 11 10 10 10 11 11 11 11 12
8 9 9 9 9 9 8 8 7 7 7 8 9 9 9 9 8 8 9 9 10 10 10 10 9 9 9 11 11 10 11 10 10 11 10 11 11 11 11 10 11 12 12
9 9 9 9 9 8 7 7 7 7 8 8 8 8 9 9 8 8 8 8 9 9 10 10 11 10 10 11 11 11 11 10 11 11 11 11 11 11 11 11 11 11 12
9 9 9 8 8 7 7 7 7 7 7 7 8 8 8 8 8 8 8 8 9 9 9 9 10 10 10 11 11 11 11 11 11 11 11 11 11 11 11 11 11 11 12
9 8 8 8 7 7 7 7 7 7 7 7 8 7 8 8 8 8 8 8 9 9 9 10 10 10 10 11 11 12 12 12 13 12 12 11 11 11 11 10 10 11 11
8 8 8 7 7 6 6 6 6 6 6 7 7 7 7 7 7 8 8 8 8 8 8 9 9 9 9 10 10 10 11 12 12 12 11 11 11 11 10 10 11 11 12
7 7 7 7 6 6 6 6 6 6 6 7 6 7 7 5 5 6 6 6 7 7 7 7 8 8 8 9 9 9 10 12 12 12 11 11 11 11 11 11 12 12 13
6 6 6 6 5 5 6 6 6 6 6 6 5 6 5 4 4 4 4 5 5 6 6 6 7 7 7 7 8 9 9 10 11 12 11 11 11 11 11 12 12 13 12
5 5 5 5 5 6 6 6 6 5 5 5 4 4 4 4 3 3 3 3 3 5 5 6 6 6 6 7 7 8 8 9 10 10 11 11 11 11 11 11 12 12 12
5 5 5 5 5 5 5 5 5 4 3 4 4 4 3 3 3 3 3 3 3 3 4 5 5 6 6 6 6 7 7 7 9 9 9 10 11 11 11 12 12 12 12
5 4 4 5 5 5 5 4 4 3 4 4 3 3 3 2 2 3 3 3 4 4 4 5 5 5 5 5 5 5 6 6 8 9 10 10 11 11 11 11 11 11 11
4 4 5 5 5 4 4 4 4 4 4 4 3 3 3 3 3 3 3 3 3 4 5 5 5 5 5 6 6 6 7 6 7 8 9 9 9 10 10 11 11 11 11
5 5 4 4 4 5 5 5 5 4 4 4 4 3 3 3 4 4 4 4 3 4 4 4 5 5 5 6 6 7 7 7 7 7 8 8 9 9 10 11 11 11 11
5 5 4 4 5 5 5 5 5 4 4 5 4 4 3 3 4 4 4 4 4 4 5 5 5 5 6 6 6 6 6 5 6 6 7 8 9 9 10 11 11 12 12

GEFSSE_500_meanwind_246.txt.gz
Wind_Speed
4 4 4 4 4 4 5 5 5 5 5 5 5 5 5 5 4 4 5 5 5 5 5 6 6 6 7 8 8 7 7 7 7 7 7 6 5 5 4 5 5 5 4
4 4 4 4 5 5 5 5 6 6 6 6 6 6 5 6 6 5 6 5 5 5 5 6 6 7 7 7 8 8 7 7 7 7 7 7 6 5 5 5 6 5 5
5 5 5 5 6 6 6 6 6 6 7 7 6 6 6 6 6 7 6 6 6 6 6 7 7 7 8 8 8 8 8 7 8 8 8 8 7 6 6 6 6 6 6
6 6 6 7 6 7 7 7 7 8 8 8 7 7 7 7 7 8 8 7 7 7 6 6 7 7 8 8 8 8 8 8 8 8 9 9 8 8 7 7 7 7 7
7 7 7 7 7 8 8 8 7 7 8 8 8 8 8 8 8 8 8 7 8 8 8 7 7 8 8 9 9 9 9 9 8 8 9 10 10 9 9 8 8 8 8
8 8 8 7 8 8 8 8 8 7 8 8 8 8 8 8 8 8 7 7 7 8 8 7 7 8 9 9 10 10 10 10 10 9 9 9 10 9 9 9 9 9 9
8 8 8 8 8 9 9 9 9 8 8 8 9 9 9 9 9 9 8 8 8 8 8 8 8 9 10 10 10 11 11 11 10 10 10 10 10 10 10 10 10 10 11
8 7 7 8 8 8 9 9 9 9 9 9 9 9 8 9 9 9 9 9 9 9 9 9 9 8 9 10 10 11 12 12 12 11 10 10 11 10 11 11 11 11 11
8 8 8 8 8 8 9 9 8 8 8 9 8 8 8 9 9 9 10 9 9 8 8 9 10 9 9 10 11 12 12 12 12 11 11 11 11 11 11 11 12 12 12
8 8 8 8 9 9 9 8 8 8 8 8 8 8 8 9 9 9 10 10 9 9 8 9 9 9 10 10 11 11 12 13 12 12 12 12 12 12 12 11 12 13 13
9 9 9 9 9 9 9 9 8 8 8 8 8 8 8 8 9 9 10 10 10 10 9 9 9 9 10 10 11 11 12 12 12 13 13 12 12 13 13 12 13 13 13
9 9 10 10 10 10 9 9 8 8 8 8 9 9 9 9 9 9 9 10 9 9 9 9 10 10 11 11 11 12 12 12 12 13 12 12 12 12 13 13 13 13 14
9 10 10 10 11 10 10 9 9 8 8 8 8 9 9 9 9 10 9 9 10 10 9 9 9 10 11 12 11 12 12 12 12 12 12 12 12 12 12 12 12 13 13
10 10 10 11 11 10 10 9 9 9 9 8 8 9 9 9 9 10 10 10 10 10 10 10 9 9 10 11 11 11 12 12 12 13 12 12 11 12 12 12 13 13 13
11 10 10 11 11 10 10 9 9 9 9 9 9 9 9 10 10 10 10 10 11 11 11 10 10 10 10 11 12 12 12 12 12 12 12 12 12 12 12 12 12 12 13
10 10 10 10 10 10 10 10 10 9 9 9 9 9 9 9 9 9 9 9 10 9 9 10 10 10 11 11 12 12 12 12 12 12 12 12 11 11 12 12 13 12 12
10 10 10 10 9 9 9 9 9 9 9 8 8 9 8 8 9 9 8 8 8 9 9 9 9 10 10 10 11 11 11 11 11 12 12 12 12 11 12 12 12 12 11
10 10 10 9 9 9 9 9 8 8 8 8 8 8 8 7 8 9 9 8 8 8 9 9 9 9 9 9 9 10 10 10 11 11 11 12 12 11 12 12 11 12 12
10 9 9 8 8 8 8 8 8 8 8 8 8 8 7 7 7 8 8 8 8 8 8 8 8 8 8 8 9 9 10 10 10 11 11 11 11 10 11 11 11 11 11
9 8 8 8 8 8 8 8 8 8 7 7 7 7 7 7 7 8 7 7 7 7 7 7 7 8 8 8 8 8 9 9 9 9 9 10 10 10 10 10 11 10 11
8 8 8 7 8 8 8 8 7 7 7 7 6 6 7 6 7 7 6 6 6 7 7 7 7 7 7 7 7 8 8 9 9 8 9 9 10 9 9 9 10 10 10
8 7 7 7 8 8 8 8 7 7 6 6 6 5 6 6 6 6 5 5 6 6 6 6 6 7 7 7 7 8 8 8 8 8 9 9 9 9 9 9 10 10 10
8 8 8 8 8 8 8 7 6 6 6 5 5 5 5 6 5 5 5 5 5 5 5 5 6 6 7 7 7 7 7 7 7 8 8 9 9 9 10 10 10 11 11
8 8 9 9 9 8 7 7 6 5 5 5 5 5 5 6 5 5 5 5 5 5 5 6 6 6 6 7 7 7 7 7 7 8 8 8 9 10 10 11 12 12 12
8 8 9 9 8 7 7 6 5 5 5 6 6 6 5 6 6 6 6 5 5 5 6 6 6 6 7 7 7 6 7 7 8 8 8 9 9 10 10 12 12 12 11
9 9 8 8 8 8 7 6 6 6 6 6 7 6 6 6 6 7 6 6 6 6 6 7 7 7 7 8 7 6 7 7 8 8 8 9 9 9 10 11 11 11 12